SL-14 DEB

Satellite information

Favourite Embed

Satellite Type and Status

DEBRISIN ORBIT

Key statistics

Satellite SL-14 DEB at a glance.

Uptime

12380

Days in orbit

Revolutions

≈ 14.2

Per day

Orbit

LEO

Low Earth Orbit

Inclination

82.5

Latest

Satellite identification and parameters

Extended collection of information and parameters for SL-14 DEB.

Object identification

Identified? True

Debris? True

Object name: SL-14 DEB

International designator: 1991-056AF

Object number (NORAD): 45293

Object ID (CCSDS): 45293

Country: COMMONWEALTH OF INDEPENDENT STATES (CIS)

Current information (Y/N): Y

RCS size: SMALL

Orbital parameters

Period: 101.347 minutes

Inclination: 82.5258 deg

SMA: 7200.562 km

Apoapsis: 937.172 km

Periapsis: 707.682 km

RAAN: 237.9422 deg

Eccentricy: 0.0159356

Argument of periapsis: 80.2323 deg

Mean anomaly: 281.6811 deg

Mean motion: 14.20866226 rev/day

Mean motion (dot): 0.00019783 rev/day2

B* drag term: 0.0080269 1/REarth

Two-line elements (TLE)

Creation date: July 6, 2025, 6:05 p.m.

Reference frame: TEME

Reference center: EARTH

Epoch: July 6, 2025, 10:04 a.m. UTC

TLE line 0: 0 SL-14 DEB

TLE line 1: 1 45293U 91056AF 25187.41971563 .00019783 00000-0 80269-2 0 9998

TLE line 2: 2 45293 82.5258 237.9422 0159356 80.2323 281.6811 14.20866226269721

Live tracking on map

Real-time ground track for satellite SL-14 DEB.

In-orbit conjunctions

A list of the most updated potential collisions computed for object SL-14 DEB.

Target Orbit TCA Probability of collision Miss distance Type
CZ-2D R/B SSO 2024-10-14 21:59:34 0.0001861661 121.0 (m) ROCKET BODY
FENGYUN 1C DEB SSO 2024-09-25 12:53:22 0.000386829 247.0 (m) DEBRIS

Associated space launch

Third generation meteorological satellite

SL-14 DEB was lifted into orbit during the mission ‘Tsiklon-3 | Meteor-3 5’, on board a Tsiklon-3 space rocket.

The launch took place on Aug. 15, 1991, 9:15 a.m. from 32/2.

For more information about the launch, click the button.

Launch to space Tsiklon-3 | Meteor-3 5
Tsiklon-3 | Meteor-3 5

Agency: N/A

Status: Launch Successful

Launch date: Aug. 15, 1991, 9:15 a.m. UTC

Rocket: Tsiklon-3

Launch pad: 32/2

Location: Plesetsk Cosmodrome, Russian Federation

...

Latest news about this satellite

There are no fresh news available about this satellite. Check back as we update our databases every day.


Newsletter sign-up

Weekly statistics, charts and insights to help you stay on top of the space industry.